FW8511 Weather Reports


time (UTC)temp
C
wind
direction
speed
KPH
gust
KPH
rain 1hr
cm
rain 24hr
cm
rain mn
cm
humidity
%
barometer
mb
20260509012030 26 0 0.0 1.6 0.00 0.03 0.03 84 1013.0
20260509010231 26 0 0.0 1.6 0.00 0.03 0.03 83 1012.6
20260509005331 26 0 0.0 1.6 0.00 0.03 0.03 81 1012.6
20260509003530 27 0 0.0 4.8 0.00 0.03 0.03 81 1012.3
20260509002631 27 0 0.0 1.6 0.00 0.03 0.03 79 1012.2
20260509001731 27 0 0.0 1.6 0.00 0.03 0.03 79 1012.2
20260509000831 27 0 0.0 1.6 0.00 0.03 0.03 79 1012.1
20260508235931 27 0 0.0 1.6 0.00 0.03 0.03 78 1011.9
20260508235030 27 0 0.0 1.6 0.00 0.03 0.03 77 1011.9
20260508234131 28 0 0.0 0.0 0.00 0.03 0.03 76 1011.8
20260508233231 28 0 0.0 1.6 0.00 0.03 0.03 75 1011.6
20260508232331 28 0 0.0 1.6 0.00 0.03 0.03 76 1011.6
20260508231430 28 0 0.0 3.2 0.00 0.03 0.03 76 1011.5
20260508230530 29 0 0.0 3.2 0.00 0.03 0.03 75 1011.5
20260508225631 30 207 1.6 3.2 0.00 0.03 0.03 74 1011.4
20260508224731 30 204 1.6 3.2 0.00 0.03 0.03 75 1011.4
20260508223831 30 201 1.6 6.4 0.00 0.03 0.03 72 1011.4
20260508222030 31 200 1.6 4.8 0.00 0.03 0.03 72 1011.3
20260508220230 30 206 3.2 6.4 0.00 0.03 0.03 70 1011.6
20260508215331 31 203 1.6 6.4 0.00 0.03 0.03 68 1011.7
20260508214431 31 203 1.6 6.4 0.00 0.03 0.03 70 1011.6
20260508213530 31 209 1.6 4.8 0.00 0.03 0.03 71 1011.6
20260508212630 31 208 1.6 4.8 0.00 0.03 0.03 69 1011.7
20260508211730 30 208 3.2 8.0 0.00 0.03 0.03 70 1011.7
20260508210831 30 214 3.2 8.0 0.00 0.03 0.03 72 1011.7
20260508205930 30 209 4.8 6.4 0.00 0.03 0.03 73 1011.8
20260508204130 30 205 3.2 8.0 0.00 0.03 0.03 70 1011.9
20260508203230 30 202 3.2 6.4 0.00 0.03 0.03 69 1011.9
20260508202330 30 209 3.2 8.0 0.00 0.03 0.03 74 1012.2
20260508201430 30 208 3.2 8.0 0.00 0.03 0.03 73 1012.2
20260508200530 30 208 3.2 9.7 0.00 0.03 0.03 74 1012.7
20260508195630 30 211 3.2 12.9 0.00 0.03 0.03 75 1012.8
20260508194730 30 213 4.8 11.3 0.00 0.03 0.03 74 1012.7
20260508193830 30 212 4.8 11.3 0.00 0.03 0.03 73 1012.8
20260508192930 30 207 4.8 8.0 0.00 0.03 0.03 74 1013.0
20260508192030 30 214 4.8 8.0 0.00 0.03 0.03 72 1013.2
20260508191130 30 209 3.2 8.0 0.00 0.03 0.03 72 1013.3
20260508190230 30 211 3.2 8.0 0.00 0.03 0.03 71 1013.4
20260508184430 31 210 3.2 6.4 0.00 0.03 0.03 70 1013.7
20260508183530 31 201 1.6 6.4 0.00 0.03 0.03 71 1013.9
20260508182630 31 211 3.2 9.7 0.00 0.03 0.03 74 1014.0
20260508181730 30 209 3.2 8.0 0.00 0.03 0.03 72 1014.2
20260508175930 31 210 1.6 6.4 0.00 0.03 0.03 72 1014.3
20260508173230 30 209 3.2 11.3 0.00 0.03 0.03 73 1014.5
20260508172330 31 203 3.2 11.3 0.00 0.03 0.03 75 1014.5
20260508165630 31 208 1.6 4.8 0.00 0.03 0.03 74 1014.7
20260508164730 31 197 1.6 6.4 0.00 0.03 0.03 73 1014.9
20260508163830 31 212 1.6 4.8 0.00 0.03 0.03 73 1015.0
20260508162930 31 257 1.6 3.2 0.00 0.03 0.03 73 1015.1
20260508162029 31 79 1.6 4.8 0.00 0.03 0.03 65 1015.1
20260508161130 31 63 1.6 4.8 0.00 0.03 0.03 63 1015.2
20260508160230 31 43 1.6 4.8 0.00 0.03 0.03 67 1015.3
20260508155330 30 53 1.6 8.0 0.00 0.03 0.03 67 1015.5
20260508153529 31 54 1.6 4.8 0.00 0.03 0.03 68 1015.7
20260508152630 30 72 1.6 8.0 0.00 0.03 0.03 65 1015.7
20260508151730 30 89 1.6 3.2 0.00 0.03 0.03 70 1015.8
20260508150830 30 62 1.6 6.4 0.00 0.03 0.03 71 1015.8
20260508145930 30 64 1.6 9.7 0.00 0.03 0.03 73 1015.9
20260508145030 28 68 1.6 6.4 0.00 0.03 0.03 73 1015.9
20260508144130 28 53 1.6 6.4 0.00 0.03 0.03 73 1015.9
20260508143230 28 50 1.6 4.8 0.00 0.03 0.03 74 1016.0
20260508142330 28 38 1.6 4.8 0.00 0.03 0.03 75 1016.0
20260508140529 28 62 1.6 6.4 0.00 0.03 0.03 78 1015.8
20260508135630 28 54 3.2 8.0 0.00 0.03 0.03 77 1015.8
20260508134730 28 47 1.6 6.4 0.00 0.03 0.03 78 1015.7
20260508133830 27 49 3.2 9.7 0.00 0.03 0.03 80 1015.6
20260508132929 27 61 1.6 4.8 0.00 0.03 0.03 83 1015.6
20260508132029 27 70 1.6 6.4 0.00 0.03 0.03 84 1015.5
20260508131130 26 59 1.6 4.8 0.00 0.03 0.03 85 1015.5
20260508130229 26 55 1.6 4.8 0.00 0.03 0.03 85 1015.6
20260508125329 26 45 1.6 3.2 0.00 0.03 0.03 86 1015.5
20260508124429 26 0 0.0 4.8 0.00 0.03 0.03 86 1015.5
20260508123529 26 0 0.0 4.8 0.00 0.03 0.03 87 1015.4
20260508122629 25 0 0.0 1.6 0.00 0.03 0.03 88 1015.5
20260508121729 25 0 0.0 1.6 0.00 0.03 0.03 89 1015.4
20260508115929 25 0 0.0 1.6 0.00 0.03 0.03 91 1015.1
20260508115029 24 0 0.0 1.6 0.00 0.03 0.03 92 1014.9
20260508114129 24 0 0.0 1.6 0.00 0.03 0.03 92 1014.7
20260508113229 23 0 0.0 1.6 0.00 0.03 0.03 93 1014.7
20260508110529 23 0 0.0 1.6 0.00 0.03 0.03 94 1014.3
20260508105629 23 0 0.0 0.0 0.00 0.03 0.03 94 1014.1
20260508104729 23 0 0.0 0.0 0.00 0.03 0.03 93 1013.9
20260508103829 23 0 0.0 0.0 0.00 0.03 0.03 94 1013.8
20260508102930 23 0 0.0 0.0 0.00 0.03 0.03 94 1013.7
20260508102029 23 0 0.0 0.0 0.00 0.03 0.03 94 1013.6
20260508101129 23 0 0.0 0.0 0.00 0.03 0.03 94 1013.3
20260508094439 23 0 0.0 1.6 0.00 0.03 0.03 94 1013.1
20260508093538 23 0 0.0 0.0 0.00 0.03 0.03 94 1013.0
20260508092639 23 0 0.0 0.0 0.00 0.03 0.03 94 1013.1
20260508091739 23 0 0.0 0.0 0.00 0.03 0.03 94 1013.0
20260508085039 23 0 0.0 0.0 0.00 0.03 0.03 94 1013.0
20260508084139 23 0 0.0 1.6 0.00 0.03 0.03 94 1013.0
20260508082338 23 0 0.0 1.6 0.00 0.03 0.03 94 1013.1
20260508081439 23 0 0.0 1.6 0.00 0.03 0.03 95 1013.1
20260508080539 23 0 0.0 0.0 0.00 0.03 0.03 95 1013.0
20260508075638 23 0 0.0 1.6 0.00 0.03 0.03 95 1013.1
20260508074738 23 0 0.0 1.6 0.00 0.03 0.03 95 1013.1
20260508073839 23 0 0.0 1.6 0.00 0.03 0.03 95 1013.2
20260508072939 24 0 0.0 1.6 0.00 0.03 0.03 95 1013.2
20260508072038 24 0 0.0 1.6 0.00 0.03 0.03 95 1013.3
20260508071138 24 0 0.0 1.6 0.00 0.03 0.03 95 1013.2
20260508065339 24 0 0.0 1.6 0.00 0.03 0.03 95 1013.3
20260508064439 24 0 0.0 1.6 0.03 0.03 0.03 95 1013.3
20260508063539 24 0 0.0 1.6 0.03 0.03 0.03 95 1013.4
20260508062639 24 0 0.0 1.6 0.03 0.03 0.03 95 1013.5
20260508061738 24 0 0.0 1.6 0.03 0.03 0.03 95 1013.4
20260508060838 24 0 0.0 0.0 0.03 0.03 0.03 95 1013.4
20260508055938 24 0 0.0 0.0 0.03 0.03 0.03 95 1013.4
20260508055039 24 0 0.0 0.0 0.00 0.00 0.00 95 1013.5
20260508054139 24 0 0.0 0.0 0.00 0.00 0.00 95 1013.7
20260508053239 24 0 0.0 0.0 0.00 0.00 0.00 95 1013.7
20260508052338 24 0 0.0 0.0 0.00 0.00 0.00 95 1013.8
20260508051439 24 0 0.0 0.0 0.00 0.00 0.00 94 1013.8
20260508045639 24 0 0.0 0.0 0.00 0.00 0.00 94 1014.0
20260508044738 24 0 0.0 0.0 0.00 0.00 0.00 94 1014.1
20260508043839 24 0 0.0 0.0 0.00 0.00 0.00 94 1014.1
20260508042939 24 0 0.0 0.0 0.00 0.00 0.00 94 1014.1
20260508042038 24 0 0.0 0.0 0.00 0.00 0.00 94 1014.2
20260508041139 24 0 0.0 0.0 0.00 0.00 0.00 94 1014.3
20260508040239 24 0 0.0 0.0 0.00 0.00 0.00 94 1014.2
20260508035338 24 0 0.0 1.6 0.00 0.00 0.00 94 1014.3
20260508033538 24 0 0.0 0.0 0.00 0.00 0.00 93 1014.2
20260508032638 24 0 0.0 1.6 0.00 0.00 0.00 93 1014.2
20260508031739 24 0 0.0 1.6 0.00 0.00 0.00 93 1014.2
20260508025038 24 0 0.0 0.0 0.00 0.00 0.00 93 1014.3
20260508024139 24 0 0.0 0.0 0.00 0.00 0.00 93 1014.2
20260508022338 24 0 0.0 0.0 0.00 0.00 0.00 92 1014.1
20260508021438 25 0 0.0 0.0 0.00 0.00 0.00 92 1014.0
20260508020538 25 0 0.0 0.0 0.00 0.00 0.00 92 1014.1
20260508015639 25 0 0.0 0.0 0.00 0.00 0.00 92 1014.1
20260508014738 25 0 0.0 0.0 0.00 0.00 0.00 91 1014.0
20260508013838 25 0 0.0 0.0 0.00 0.00 0.00 91 1014.2
20260508012938 25 0 0.0 0.0 0.00 0.00 0.00 91 1014.1